User: anonymous   Login
Location: Unspecified
(0.0000°N, 0.0000°E)
Time: 14:49:17
(UTC+00:00)
Language:

CUBEBUG 2 - Orbit

View from above orbital plane
View from above orbital plane
View from above satellite
View from above satellite

Ground track
Ground track

The orbit data is extracted from the following two-line orbital elements,

1 39440U 13066AA  17206.15452038 +.00000183 +00000-0 +32682-4 0  9997
2 39440 097.6266 235.4312 0080918 176.1285 184.0569 14.75469436197698
Epoch (UTC): 25 July 2017 03:42:30
Eccentricity: 0.0080918
inclination: 97.6266°
perigee height: 587 km
apogee height: 700 km
right ascension of ascending node: 235.4312°
argument of perigee: 176.1285°
revolutions per day: 14.75469436
mean anomaly at epoch: 184.0569°
orbit number at epoch: 19769

The dashed part of the orbit path shows where the satellite is in the earth's shadow,  

DLR